[ hide orbit diagram ]
For accurate long-term ephemerides, please instead use our Horizons system.This orbit viewer was implemented using two-body methods, and hence should not be used for determining accurate long-term trajectories (over several years or decades) or planetary encounter circumstances.
Orbital Elements at Epoch 2459000.5 (2020-May-31.0) TDB
Reference: JPL 20 (heliocentric ecliptic J2000)
Element | Value | Uncertainty (1-sigma) | Units |
e | .1300404905575472 | 3.6106e-08 | |
a | 2.772636202817151 | 1.6407e-08 | au |
q | 2.412081230865193 | 9.9717e-08 | au |
i | 4.175028461931591 | 4.5698e-06 | deg |
node | 322.0036635227432 | 6.197e-05 | deg |
peri | 310.4817773671111 | 6.4847e-05 | deg |
M | 164.4775005284384 | 1.9309e-05 | deg |
tp | 2458230.054792264728 (2018-Apr-21.55479226) | 9.0045e-05 | TDB |
period | 1686.31134284985 4.62 | 1.4968e-05 4.098e-08 | d yr |
n | .2134837089997885 | 1.895e-09 | deg/d |
Q | 3.133191174769108 | 1.8541e-08 | au |
|
| | Orbit Determination Parameters
Additional Information
|
[ hide covariance matrix ]
Orbital Elements at Epoch 2456934.5 (2014-Oct-04.0) TDB
Reference: JPL 20 (heliocentric ecliptic J2000)
Element | Value | Uncertainty (1-sigma) | Units |
e | .1314804155797605 | 3.5921e-08 | |
q | 2.406973765322026 | 9.9354e-08 | au |
tp | 2456546.678403641852 (2013-Sep-11.17840364) | 9.0347e-05 | TDB |
node | 322.1159559486194 | 6.1864e-05 | deg |
peri | 310.7470157258524 | 6.4702e-05 | deg |
i | 4.180030548497572 | 4.5748e-06 | deg |
|
| | Orbit Determination Parameters
Additional Information
|
Orbit Covariance (6×6)
|
|
e |
q |
tp |
node |
peri |
i |
e |
1.290350851676656E-15 |
-3.532184634183574E-15 |
6.812418355112465E-14 |
-3.384301651029498E-15 |
4.453445134755152E-15 |
2.026665463286208E-16 |
q |
-3.532184634183574E-15 |
9.871201240259237E-15 |
-3.927631561315759E-13 |
7.244696805896096E-15 |
-4.356295750847115E-14 |
-3.04437896870341E-16 |
tp |
6.812418355112465E-14 |
-3.927631561315759E-13 |
8.162642898015905E-9 |
-7.282915185544761E-12 |
1.736497257152624E-9 |
-2.33441670800457E-12 |
node |
-3.384301651029498E-15 |
7.244696805896096E-15 |
-7.282915185544761E-12 |
3.827142842599744E-9 |
-3.818124598870235E-9 |
5.976846253379053E-11 |
peri |
4.453445134755152E-15 |
-4.356295750847115E-14 |
1.736497257152624E-9 |
-3.818124598870235E-9 |
4.186410157470738E-9 |
-6.009602372695152E-11 |
i |
2.026665463286208E-16 |
-3.04437896870341E-16 |
-2.33441670800457E-12 |
5.976846253379053E-11 |
-6.009602372695152E-11 |
2.092893079469327E-11 |
|
Physical Parameter Table
Parameter |
Symbol |
Value |
Units |
Sigma |
Reference |
Notes |
absolute magnitude |
H |
14.9 |
|
n/a |
MPO263659 |
|
|
37481 (1209 T-1) Discovered 1971-Mar-25 by van Houten, C. J., van Houten-Groeneveld, I., Gehrels, T. at Palomar |
Reference: 20020227/Numbers.arc | Last Updated: 2004-04-19 |
|
[ show close-approach data ]
|